Starlink 30159

operational
NORAD ID: 57440 Int'l Des: 2023-105 Owner: SPXS Country: US Constellation: starlink
LEOCIRCULAR

关于 Starlink 30159

正在加载描述...

实时位置

正在加载3D地球...

即将过境

高度历史

Altitude vs Time

uPlot chart will show altitude changes over time

两行轨道根数

1 57440U 23105L 25303.86279700 .00176740 00000-0 10619-1 0 9996
2 57440 42.9995 246.8897 0001405 323.1881 36.8867 15.09387749125874
Epoch: Oct 30, 2025 • Age: 6 hours

当前状态

高度 550.5 km
速度 7.59 km/s
星下点 -43.01°S, 81.43°E
发射日期 Jul 24, 2023
运行时间 2.2 years
类型 internet

技术详情

分类 Payload
质量 730.00 kg
干质量 700.00 kg
总质量 730.00 kg
长度 0.30 m
直径 4.10 m
跨度 29.00 m
形状 Box + pan
制造商 SPXS
平台类型 Starlink V2M
阶段状态 In Orbit
所有者/国家 SPXS/US

大型星座

Loading constellations...